Regional Weather Roundup
Issued by NWS

Home | Current Version | Previous Version | Graphics & Text | Print | Product List | Glossary Off
Versions: 1 2 3 4 5 6 7 8 9 10 11 12 13 14 15 16 17 18 19 20 21 22 23 24 25 26 27 28 29 30 31 32 33 34 35 36 37 38 39 40 41 42 43 44 45 46 47 48 49 50

000
ASUS43 KMPX 202201
RWRMN
WEATHER ROUNDUP FOR MINNESOTA
NATIONAL WEATHER SERVICE TWIN CITIES/CHANHASSEN MN
500 PM CDT SUN AUG 20 2017


NOTE: "FAIR" INDICATES FEW OR NO CLOUDS BELOW 12,000 FEET WITH NO
SIGNIFICANT WEATHER AND/OR OBSTRUCTIONS TO VISIBILITY. N/A MEANS
CURRENT SKY AND/OR WEATHER CONDITIONS ARE NOT AVAILABLE.

MNZ060>063-068>070-202300-
   Twin Cities Metro

CITY           SKY/WX    TMP DP  RH WIND       PRES   REMARKS
TWIN CITIES    MOSUNNY   85  67  54 W3        29.92F
ST PAUL        MOSUNNY   83  68  60 VRB6      29.91F
CRYSTAL        SUNNY     83  64  52 W7        29.91F
BLAINE         PTSUNNY   84  66  54 NW8       29.93S
LAKEVILLE      MOSUNNY   81  72  74 W3        29.94S
EDEN PRAIRIE   SUNNY     84  65  52 NW6       29.92F
SOUTH ST PAUL  MOSUNNY   83  68  61 W3        29.92S
LAKE ELMO      PTSUNNY   82  70  65 NW5       29.94S
$$
MNZ001>005-007-008-013>017-022>024-027-028-202300-
   Northwest Minnesota

CITY           SKY/WX    TMP DP  RH WIND       PRES   REMARKS
BEMIDJI        CLOUDY    75  46  35 W8        29.97S
HALLOCK        SUNNY     79  34  19 NW14G20   29.95S
ROSEAU         SUNNY     79  45  29 W12G17    29.94R
WARROAD        SUNNY     75  48  38 W15       29.94R
CROOKSTON      MOSUNNY   77  45  31 N8        29.97F
FOSSTON        MOSUNNY   73  41  31 W7        29.98F
DETROIT LAKES  CLOUDY    72  48  43 NW10      30.01S
MOORHEAD       PTSUNNY   72  54  53 NW5       30.00S
PARK RAPIDS    SUNNY     75  48  38 NW10      29.99R
MAHNOMEN       FAIR      72  50  46 W8        29.98S
$$
MNZ006-009>011-018-025>026-202300-
   North Central Minnesota

CITY           SKY/WX    TMP DP  RH WIND       PRES   REMARKS
BAUDETTE       MOSUNNY   76  47  35 NW12      29.93R
FLAG ISLAND    MOSUNNY   73  48  40 NW5       29.90R HAZE
INTL FALLS     PTSUNNY   74  52  46 W10       29.91R
WASKISH        PTSUNNY   75  52  43 W10       29.94S
BIG FORK       MOSUNNY   75  54  46 W7        29.94R
LONGVILLE      SUNNY     73  55  53 CALM      29.97S
GRAND RAPIDS   MOSUNNY   72  56  57 W9        29.98R
CRANE LAKE     SUNNY     73  52  46 NW6       29.90F
ORR            SUNNY     75  48  38 NW6       29.90R
COOK           CLOUDY    73  52  46 W12       29.93R
WALKER         FAIR      72  52  49 NW8       29.96F
$$
MNZ012-019>021-037-202300-
   Northeast Minnesota

CITY           SKY/WX    TMP DP  RH WIND       PRES   REMARKS
DULUTH         PTSUNNY   75  57  53 W10       29.93R
ELY            CLOUDY    73  52  46 W7G16     29.90S
HIBBING        MOSUNNY   72  54  53 W6        29.94R
EVELETH        CLOUDY    73  43  33 NW10      29.95R
DULUTH HARBOR  CLOUDY    79  64  61 W9        29.91R
TWO HARBORS    CLOUDY    79  63  57 W7        29.89R
SILVER BAY     PTSUNNY   77  61  57 CALM      29.87S
GRAND MARAIS     N/A     69  64  84 W8        29.83R
$$
MNZ029>031-032-039>041-046>048-054>057-064-202300-
   West Central Minnesota

CITY           SKY/WX    TMP DP  RH WIND       PRES   REMARKS
FERGUS FALLS   MOSUNNY   70  55  60 NW6       30.00R
WHEATON        CLOUDY    72  55  56 W7        30.05R
MORRIS         CLOUDY    72  63  73 W6        30.01R
ELBOW LAKE     FAIR      72  58  61 NW7       30.01S HAZE
WADENA         SUNNY     73  54  49 NW5       29.99R
GLENWOOD       SUNNY     73  57  56 NW3       30.01S
APPLETON       CLOUDY    72  59  64 NW9       30.00R
BENSON         CLOUDY    73  61  64 N9        30.02R
ORTONVILLE     CLOUDY    70  57  64 MISG      30.03R
MADISON        PTSUNNY   73  63  68 NW10G17   30.02R
WILLMAR        FAIR      75  63  64 N7        30.00R
$$
MNZ033>034-036-042>043-049>051-058-059-202300-
   Central Minnesota

CITY           SKY/WX    TMP DP  RH WIND       PRES   REMARKS
ST CLOUD       MOSUNNY   76  65  68 NW9       29.96R
SAUK CENTRE    FAIR      73  59  61 NW6       29.99S
PAYNESVILLE    MOSUNNY   75  62  62 NW7       29.99S
AITKIN         SUNNY     73  55  53 W5        29.95S
PINE RIVER     SUNNY     72  52  49 W5        30.01R
BRAINERD       SUNNY     74  57  55 W8        29.98R
STAPLES        SUNNY     75  52  43 NW6       29.98S
LONG PRAIRIE   FAIR      72  57  60 CALM      30.00F
LITTLE FALLS   SUNNY     73  57  56 W6        29.99R
LITCHFIELD     CLOUDY    79  66  65 NW9       29.98R
BUFFALO        PTSUNNY   78  61  56 NW7       29.96S
MAPLE LAKE     CLOUDY    77  67  71 NW7       29.97S
HUTCHINSON     SUNNY     77  67  71 NW7       29.97R
$$
MNZ037-044-045-052-053-202300-
   East Central Minnesota

CITY           SKY/WX    TMP DP  RH WIND       PRES   REMARKS
PRINCETON      CLOUDY    81  66  61 W7        29.96R
MORA           CLOUDY    75  61  60 NW7       29.97S
CAMBRIDGE      CLOUDY    81  64  57 NW6       29.95S
RUSH CITY      CLOUDY    76  64  67 NW5       29.94S HAZE
MOOSE LAKE     MOSUNNY   75  59  57 NW7       29.92F
HINCKLEY       FAIR      77  64  65 W5        29.94R
CLOQUET        PTSUNNY   75  54  46 W7        29.94S
MCGREGOR       MOSUNNY   73  55  53 W5        29.95S
$$
MNZ071>073-080-081-089-090-097-098-202300-
   Southwest Minnesota

CITY           SKY/WX    TMP DP  RH WIND       PRES   REMARKS
MONTEVIDEO     CLOUDY    75  64  69 CALM      30.00R
GRANITE FALLS  PTSUNNY   72  65  78 N8        30.00S
CANBY          CLOUDY    73  60  62 CALM      30.03R
MARSHALL       CLOUDY    73  64  73 N10       30.00R
REDWOOD FALLS  PTSUNNY   78  66  66 NW6       29.96S
OLIVIA         CLOUDY    73  64  73 N7        29.97S
PIPESTONE      MOSUNNY   77  59  53 E5        30.00R
WINDOM         SUNNY     81  66  61 N5        29.98S
WORTHINGTON    SUNNY     79  70  74 N8        29.99S
JACKSON        SUNNY     81  70  69 VRB3      29.98S
TRACY          PTSUNNY   75  66  75 N7        29.99S
SLAYTON        PTSUNNY   76  60  57 E3        30.01R
$$
MNZ065>067-074>077-082>085-091>093-202300-
   South Central Minnesota

CITY           SKY/WX    TMP DP  RH WIND       PRES   REMARKS
MANKATO        MOSUNNY   81  71  71 NW7       29.96R
NEW ULM        SUNNY     81  66  61 CALM      29.95S
ST JAMES       SUNNY     81  70  69 N5        29.96F
GLENCOE        SUNNY     81  72  74 NW5       29.95R
FARIBAULT      PTSUNNY   81  70  69 SW6       29.96R
OWATONNA       PTSUNNY   81  72  74 SW7       29.97R
WASECA         MOSUNNY   81  68  65 SW5       29.98R
ALBERT LEA     SUNNY     84  68  58 W3        29.96S
$$
MNZ078>079-086>088-094>096-202300-
   Southeast Minnesota

CITY           SKY/WX    TMP DP  RH WIND       PRES   REMARKS
ROCHESTER      PTSUNNY   82  69  64 W5        29.97R
RED WING       SUNNY     86  63  45 W7        29.92S
STANTON        MOSUNNY   83  69  61 SW5       29.93S
DODGE CENTER   PTSUNNY   81  66  61 SW7       29.97R
WINONA         SUNNY     82  64  54 NW5       29.94S
AUSTIN         SUNNY     82  66  57 NW5       29.95S
PRESTON        SUNNY     82  63  51 W3        29.98R
$$
ABBREVIATIONS USED IN REMARKS
   TC - TEMPERATURES IN CELSIUS
  WCI - WIND CHILL INDEX
   HX - HEAT INDEX
  VSB - VISIBILITY
$$




USA.gov is the U.S. government's official web portal to all federal, state and local government web resources and services.